This is the latest recevied weather packets stored in our database for station/object SM6LNJ-13. If no packets are shown the sender has not sent any weather packets the latest 1 day(s).
| Time | Temp. | Humidity | Pressure | Rain* | Wind** | Luminosity | Snow |
|---|---|---|---|---|---|---|---|
| 1778052470 | 11.11° C | 53% | 1421.3 hPa | 0 mm | 0.89 m/s, 124° | - | - |
| 1778052350 | 11.11° C | 53% | 1421.2 hPa | 0 mm | 0 m/s | - | - |
| 1778052230 | 10.56° C | 53% | 1421 hPa | 0 mm | 0.89 m/s, 99° | - | - |
| 1778052110 | 10.56° C | 54% | 1420.6 hPa | 0 mm | 0.45 m/s, 131° | - | - |
| 1778051990 | 10.56° C | 55% | 1420.4 hPa | 0 mm | 0.89 m/s, 111° | - | - |
| 1778051870 | 10.56° C | 57% | 1420.7 hPa | 0 mm | 0.45 m/s, 127° | - | - |
| 1778051750 | 10.56° C | 58% | 1421 hPa | 0 mm | 0.45 m/s, 124° | - | - |
| 1778051630 | 10.56° C | 58% | 1420.7 hPa | 0 mm | 0.45 m/s, 113° | - | - |
| 1778051510 | 10.56° C | 59% | 1420.6 hPa | 0 mm | 0.89 m/s, 96° | - | - |
| 1778051390 | 10.56° C | 60% | 1420.5 hPa | 0 mm | 0.45 m/s, 109° | - | - |
| 1778051271 | 10.56° C | 61% | 1420.8 hPa | 0 mm | 0.45 m/s, 140° | - | - |
| 1778051150 | 10.56° C | 61% | 1420.6 hPa | 0 mm | 0.45 m/s, 76° | - | - |
| 1778051030 | 10.56° C | 61% | 1420.1 hPa | 0 mm | 0.45 m/s, 96° | - | - |
| 1778050910 | 10° C | 60% | 1419.8 hPa | 0 mm | 0.45 m/s, 116° | - | - |
| 1778050790 | 10.56° C | 60% | 1420.1 hPa | 0 mm | 0.45 m/s, 127° | - | - |
| 1778050670 | 10.56° C | 60% | 1420.2 hPa | 0 mm | 0.45 m/s, 98° | - | - |
| 1778050550 | 10.56° C | 61% | 1420.1 hPa | 0 mm | 0 m/s | - | - |
| 1778050430 | 10° C | 60% | 1419.7 hPa | 0 mm | 0.45 m/s, 124° | - | - |
| 1778050310 | 10.56° C | 61% | 1420 hPa | 0 mm | 0.45 m/s, 102° | - | - |
| 1778050190 | 10.56° C | 60% | 1420.2 hPa | 0 mm | 0.45 m/s, 118° | - | - |
| 1778050070 | 10.56° C | 61% | 1420.3 hPa | 0 mm | 0.45 m/s, 122° | - | - |
| 1778049950 | 10.56° C | 61% | 1419.9 hPa | 0 mm | 0.45 m/s, 107° | - | - |
| 1778049830 | 10° C | 61% | 1419.5 hPa | 0 mm | 0.45 m/s, 76° | - | - |
| 1778049710 | 10° C | 62% | 1419.2 hPa | 0 mm | 0.45 m/s, 89° | - | - |
| 1778049590 | 10° C | 62% | 1418.9 hPa | 0 mm | 0.45 m/s, 101° | - | - |
* Rain latest hour (hover to see other rain measurements)
** Current wind speed in m/s (hover to see current wind gust speed)